Flag for U.S.A. Weather past 2 weeks in Manassas, Virginia, U.S.A.

63 °F


Feels Like: 63 °F
Forecast: 45 / 64 °F
Wind: 9 mph from North

Location: Manassas Municipal

Current Time: Oct 10, 2015 at 3:29:01 AM

Latest Report: Oct 10, 2015 at 2:55 AM

Visibility: 10 mi

Pressure: 30.03 "Hg

Humidity: 77%

Dew point: 55 °F

Location of ManassasLocation

Historic Weather in Manassas — Graph


Manassas temperature yesterday

Maximum temperature yesterday: 79 °F (at 2:45 PM)
Minimum temperature yesterday: 55 °F (at 2:15 AM)
Average temperature yesterday: 63 °F

Past Weeks' High & Low Weather Summary

High81 °F (Sep 28, 4:50 PM)100% (Sep 25, 3:15 AM)30.39 "Hg (Sep 25, 3:15 AM)
Low43 °F (Oct 6, 5:55 AM)36% (Oct 6, 1:45 PM)29.69 "Hg (Sep 30, 4:35 AM)
Average61 °F88%30.11 "Hg
* Reported Sep 25 2:15 AM — Oct 10 2:35 AM, Manassas, Weather by CustomWeather, © 2015

Note: Actual official high and low records may vary slightly from our data, if they occured in-between our weather recording intervals... More about our weather records


Manassas weather history for previous 24 hours

Time TempWeatherWind HumidityBarometerVisibility
2:35 AM
Sat, Oct 10
63 °FClear.7 mph77%30.02 "Hg10 mi
2:15 AM63 °FPassing clouds.8 mph77%30.02 "Hg10 mi
1:55 AM64 °FPassing clouds.10 mph73%30.02 "Hg10 mi
1:35 AM64 °FPassing clouds.9 mph78%30.02 "Hg10 mi
1:15 AM64 °FPassing clouds.9 mph78%30.02 "Hg10 mi
12:55 AM64 °FPassing clouds.7 mph78%30.01 "Hg10 mi
12:35 AM64 °FOvercast.10 mph78%30.01 "Hg10 mi
12:15 AM66 °FMostly cloudy.10 mph78%30.00 "Hg10 mi
11:55 PM
Fri, Oct 9
66 °FMostly cloudy.8 mph83%30.00 "Hg10 mi
11:35 PM66 °FPassing clouds.9 mph83%29.99 "Hg10 mi
11:15 PM66 °FPassing clouds.7 mph83%29.97 "Hg10 mi
10:55 PM66 °FPassing clouds.9 mph83%29.97 "Hg10 mi
10:35 PM66 °FPassing clouds.7 mph88%29.96 "Hg10 mi
9:45 PM66 °FOvercast.7 mph94%29.96 "Hg10 mi
8:55 PM66 °FClear.No wind100%29.94 "Hg10 mi
6:45 PM72 °FBroken clouds.7 mph78%29.85 "Hg7 mi
5:45 PM77 °FScattered clouds.5 mph69%29.85 "Hg10 mi
4:45 PM79 °FSunny.10 mph61%29.84 "Hg10 mi
3:45 PM79 °FScattered clouds.7 mph61%29.85 "Hg10 mi
2:45 PM79 °FSunny.9 mph61%29.87 "Hg10 mi
1:45 PM77 °FBroken clouds.9 mph65%29.90 "Hg10 mi
12:45 PM73 °FPartly sunny.7 mph74%29.94 "Hg10 mi
11:45 AM75 °FOvercast.6 mph69%29.95 "Hg10 mi
10:45 AM72 °FPartly sunny.7 mph78%29.97 "Hg10 mi
9:45 AM70 °FPartly sunny.6 mph83%29.99 "Hg10 mi
8:55 AM64 °FScattered clouds.5 mph100%29.99 "Hg10 mi
7:50 AM57 °FClear.5 mph100%29.98 "Hg10 mi
6:15 AM57 °FMostly cloudy.No wind100%30.00 "Hg7 mi
5:55 AM57 °FOvercast.No wind100%30.00 "Hg8 mi
5:35 AM57 °FMostly cloudy.No wind100%30.00 "Hg8 mi
5:15 AM55 °FPassing clouds.No wind100%30.00 "Hg8 mi
4:55 AM55 °FPassing clouds.No wind100%30.01 "Hg7 mi
4:35 AM55 °FClear.No wind100%30.01 "Hg4 mi
4:15 AM55 °FClear.No wind100%30.01 "Hg7 mi
3:55 AM55 °FClear.No wind100%30.02 "Hg9 mi
3:35 AM55 °FClear.No wind100%30.02 "Hg8 mi
3:15 AM55 °FClear.No wind100%30.03 "Hg5 mi
Weather by CustomWeather, © 2015

See weather overviewHow to use our weather pages